User: anonymous   Login
Location: �clusier
(49.9361°N, 2.7869°E)
Time: 22:19:30
(UTC+00:00)
Language:

Cosmos 1725 Rocket - Orbit

View from above orbital plane
View from above orbital plane
View from above satellite
View from above satellite

Ground track
Ground track

The orbit data is extracted from the following two-line orbital elements,

1 16494U 86005B   21266.18537215  .00000054  00000-0  39426-4 0  9999
2 16494  82.9359 352.1900 0019298 194.5142 190.9034 13.76515629792398
Epoch (UTC): 23 September 2021 04:26:56
Eccentricity: 0.0019298
inclination: 82.9359°
perigee height: 962 km
apogee height: 990 km
right ascension of ascending node: 352.1900°
argument of perigee: 194.5142°
revolutions per day: 13.76515629
mean anomaly at epoch: 190.9034°
orbit number at epoch: 79239

The dashed part of the orbit path shows where the satellite is in the earth's shadow,  

DLR